DEMYK EDHL-EDDH

Flight info

Callsign DEMYK
Flight time 0h 21m
Altitude
Route
Aircraft PA28

Departure

Time 2026-05-08 18:10
Airport Lübeck Blankensee Airport (EDHL)

Arrival

Time 2026-05-08 18:31
Airport Hamburg Helmut Schmidt Airport (EDDH)
Time Latitude Longitude Altitude Speed Heading
2026-05-08 18:06 53.80704 10.70597 25 ft 0 kts 186°
2026-05-08 18:07 53.80701 10.70590 53 ft 4 kts 249°
2026-05-08 18:07 53.80637 10.70463 53 ft 23 kts 225°
2026-05-08 18:07 53.80540 10.70334 53 ft 10 kts 160°
2026-05-08 18:08 53.80460 10.70428 53 ft 16 kts 146°
2026-05-08 18:08 53.80422 10.70472 53 ft 0 kts 144°
2026-05-08 18:09 53.80385 10.70517 53 ft 12 kts 143°
2026-05-08 18:09 53.80302 10.70619 54 ft 17 kts 130°
2026-05-08 18:10 53.80342 10.70925 57 ft 53 kts 71°
2026-05-08 18:10 53.80478 10.71675 229 ft 75 kts 73°
2026-05-08 18:10 53.80639 10.72619 494 ft 90 kts 76°
2026-05-08 18:10 53.80979 10.73553 805 ft 101 kts 34°
2026-05-08 18:11 53.81724 10.73478 1025 ft 124 kts 332°
2026-05-08 18:11 53.82161 10.72144 1174 ft 140 kts 286°
2026-05-08 18:11 53.82295 10.70542 1342 ft 135 kts 280°
2026-05-08 18:11 53.82417 10.68958 1617 ft 138 kts 277°
2026-05-08 18:12 53.82513 10.67315 1764 ft 139 kts 277°
2026-05-08 18:12 53.82637 10.65703 1899 ft 140 kts 277°
2026-05-08 18:12 53.82759 10.63998 1873 ft 147 kts 277°
2026-05-08 18:12 53.82885 10.62295 1966 ft 143 kts 278°
2026-05-08 18:13 53.83038 10.60604 1961 ft 149 kts 279°
2026-05-08 18:13 53.83189 10.58883 1896 ft 149 kts 279°
2026-05-08 18:13 53.83330 10.57149 1871 ft 146 kts 279°
2026-05-08 18:13 53.83481 10.55462 1803 ft 146 kts 278°
2026-05-08 18:14 53.83629 10.53756 1712 ft 147 kts 278°
2026-05-08 18:14 53.83646 10.53581 1712 ft 146 kts 280°
2026-05-08 18:14 53.83761 10.52562 1588 ft 151 kts 282°
2026-05-08 18:15 53.83926 10.51162 1472 ft 155 kts 282°
2026-05-08 18:15 53.84048 10.50056 1750 ft 137 kts 282°
2026-05-08 18:16 53.84185 10.48504 1967 ft 130 kts 277°
2026-05-08 18:16 53.84282 10.46863 1886 ft 147 kts 276°
2026-05-08 18:16 53.84374 10.45213 2090 ft 136 kts 276°
2026-05-08 18:16 53.84460 10.43601 2137 ft 140 kts 273°
2026-05-08 18:17 53.84501 10.41954 2201 ft 141 kts 272°
2026-05-08 18:17 53.84504 10.40274 2223 ft 143 kts 264°
2026-05-08 18:17 53.84378 10.38627 2298 ft 139 kts 260°
2026-05-08 18:17 53.84248 10.36996 2303 ft 144 kts 262°
2026-05-08 18:18 53.84164 10.35314 2400 ft 141 kts 266°
2026-05-08 18:18 53.84135 10.33660 2456 ft 141 kts 267°
2026-05-08 18:18 53.84134 10.31997 2484 ft 142 kts 271°
2026-05-08 18:18 53.84190 10.30321 2519 ft 142 kts 274°
2026-05-08 18:19 53.84305 10.28678 2616 ft 140 kts 279°
2026-05-08 18:19 53.84538 10.27068 2621 ft 142 kts 289°
2026-05-08 18:19 53.84893 10.25489 2624 ft 144 kts 293°
2026-05-08 18:19 53.85240 10.23917 2664 ft 143 kts 285°
2026-05-08 18:20 53.85480 10.22291 2745 ft 140 kts 284°
2026-05-08 18:20 53.85742 10.20656 2691 ft 147 kts 287°
2026-05-08 18:20 53.86074 10.19045 2755 ft 143 kts 291°
2026-05-08 18:20 53.86455 10.17459 2720 ft 148 kts 296°
2026-05-08 18:21 53.86835 10.15851 2751 ft 145 kts 285°
2026-05-08 18:21 53.87018 10.14186 2778 ft 145 kts 272°
2026-05-08 18:21 53.87026 10.12495 2842 ft 140 kts 269°
2026-05-08 18:21 53.87057 10.10867 2959 ft 138 kts 269°
2026-05-08 18:22 53.87075 10.09246 2994 ft 142 kts 267°
2026-05-08 18:22 53.87081 10.07563 2970 ft 145 kts 270°
2026-05-08 18:22 53.87179 10.05880 3004 ft 143 kts 279°
2026-05-08 18:22 53.87391 10.04241 2974 ft 139 kts 273°
2026-05-08 18:23 53.86974 10.02905 2626 ft 133 kts 204°
2026-05-08 18:23 53.86154 10.02279 2361 ft 130 kts 192°
2026-05-08 18:23 53.85376 10.01823 2059 ft 120 kts 189°
2026-05-08 18:23 53.84614 10.01468 2013 ft 107 kts 188°
2026-05-08 18:24 53.84164 10.01210 2011 ft 100 kts 190°
2026-05-08 18:24 53.83543 10.00846 1958 ft 94 kts 180°
2026-05-08 18:24 53.82891 10.00738 1830 ft 94 kts 171°
2026-05-08 18:24 53.82177 10.00777 1606 ft 111 kts 170°
2026-05-08 18:25 53.81451 10.01010 1482 ft 104 kts 164°
2026-05-08 18:25 53.80754 10.01117 1458 ft 99 kts 174°
2026-05-08 18:25 53.80032 10.01033 1450 ft 110 kts 179°
2026-05-08 18:25 53.79257 10.00931 1536 ft 114 kts 180°
2026-05-08 18:26 53.78441 10.00778 1573 ft 121 kts 183°
2026-05-08 18:26 53.77635 10.00589 1576 ft 114 kts 182°
2026-05-08 18:26 53.76868 10.00423 1574 ft 109 kts 181°
2026-05-08 18:26 53.76139 10.00244 1574 ft 105 kts 182°
2026-05-08 18:27 53.75439 10.00068 1608 ft 100 kts 181°
2026-05-08 18:27 53.74985 9.99927 1582 ft 101 kts 185°
2026-05-08 18:27 53.74083 9.99633 1630 ft 100 kts 187°
2026-05-08 18:27 53.73399 9.99298 1727 ft 100 kts 192°
2026-05-08 18:28 53.72730 9.98963 1670 ft 99 kts 184°
2026-05-08 18:28 53.72029 9.98963 1501 ft 103 kts 168°
2026-05-08 18:28 53.71331 9.99076 1469 ft 103 kts 169°
2026-05-08 18:28 53.70626 9.99199 1497 ft 98 kts 167°
2026-05-08 18:29 53.69930 9.99337 1468 ft 100 kts 168°
2026-05-08 18:29 53.69227 9.99389 1463 ft 101 kts 173°
2026-05-08 18:29 53.68535 9.99109 1489 ft 100 kts 195°
2026-05-08 18:29 53.67890 9.98524 1402 ft 114 kts 207°
2026-05-08 18:30 53.67167 9.97778 1187 ft 125 kts 206°
2026-05-08 18:30 53.66401 9.97218 992 ft 119 kts 184°
2026-05-08 18:30 53.65617 9.97353 463 ft 106 kts 167°
2026-05-08 18:30 53.65006 9.97893 98 ft 92 kts 158°
2026-05-08 18:31 53.64532 9.98297 53 ft 62 kts 148°
2026-05-08 18:31 53.64156 9.98630 48 ft 57 kts 153°
2026-05-08 18:31 53.63804 9.98927 44 ft 55 kts 158°
2026-05-08 18:31 53.63538 9.99161 42 ft 30 kts 149°
2026-05-08 18:32 53.63361 9.99322 41 ft 28 kts 160°
2026-05-08 18:32 53.63159 9.99324 41 ft 24 kts 195°
2026-05-08 18:32 53.63128 9.99312 41 ft 0 kts 191°
2026-05-08 18:33 53.63120 9.99309 41 ft 8 kts 192°
2026-05-08 18:33 53.63021 9.99221 41 ft 20 kts 232°
2026-05-08 18:33 53.62908 9.98993 41 ft 29 kts 230°
2026-05-08 18:34 53.62765 9.98704 41 ft 26 kts 229°
2026-05-08 18:34 53.62736 9.98646 41 ft 0 kts 238°
2026-05-08 18:34 53.62715 9.98604 41 ft 9 kts 230°
2026-05-08 18:34 53.62669 9.98598 41 ft 7 kts 125°
2026-05-08 18:35 53.62657 9.98646 41 ft 2 kts 282°